Retour au catalogue

CZ-6A DEB

ActifPO
NORAD 64639·DEBRIS·🇨🇳 China

Lancé Aug 6, 2024 depuis Taiyuan Satellite Launch Center

Loading…

Prochains Passages (prochaines 24 heures)

TLE

FraisSource: Space-Track

Époque: Sep 14, 2026, 05:51 UTC

1 64639U 24140AED 26257.24395741  .00000249  00000-0  15154-3 0  9990
2 64639  88.8317 253.3394 0142028 349.2495  10.5654 13.98365156101603

Suivez CZ-6A DEB en temps réel avec AllMySat

Download on the App Store